| time (UTC) | temp C | wind direction | speed KPH | gust KPH | rain 1hr cm | rain 24hr cm | rain mn cm | humidity % | barometer mb |
| 20260506033527 | 19 | 337 | 6.4 | 20.9 | 0.00 | 0.00 | 0.00 | 72 | 1009.7 |
| 20260506033045 | 19 | 36 | 4.8 | 20.9 | 0.00 | 0.00 | 0.00 | 72 | 1009.6 |
| 20260506032527 | 19 | 17 | 4.8 | 14.5 | 0.00 | 0.00 | 0.00 | 72 | 1009.5 |
| 20260506032029 | 20 | 347 | 6.4 | 14.5 | 0.00 | 0.00 | 0.00 | 72 | 1009.4 |
| 20260506031556 | 20 | 37 | 6.4 | 17.7 | 0.00 | 0.00 | 0.00 | 72 | 1009.4 |
| 20260506031030 | 20 | 20 | 8.0 | 17.7 | 0.00 | 0.00 | 0.00 | 72 | 1009.3 |
| 20260506030527 | 20 | 58 | 6.4 | 17.7 | 0.00 | 0.00 | 0.00 | 72 | 1009.0 |
| 20260506030042 | 20 | 39 | 4.8 | 16.1 | 0.00 | 0.00 | 0.00 | 71 | 1009.1 |
| 20260506025531 | 21 | 33 | 8.0 | 16.1 | 0.00 | 0.00 | 0.00 | 71 | 1009.1 |
| 20260506025031 | 21 | 32 | 6.4 | 16.1 | 0.00 | 0.00 | 0.00 | 70 | 1009.0 |
| 20260506024543 | 21 | 46 | 8.0 | 16.1 | 0.00 | 0.00 | 0.00 | 70 | 1008.8 |
| 20260506024031 | 21 | 340 | 4.8 | 12.9 | 0.00 | 0.00 | 0.00 | 70 | 1008.6 |
| 20260506023531 | 21 | 0 | 3.2 | 11.3 | 0.00 | 0.00 | 0.00 | 69 | 1008.5 |
| 20260506023043 | 21 | 29 | 3.2 | 17.7 | 0.00 | 0.00 | 0.00 | 69 | 1008.2 |
| 20260506022532 | 21 | 19 | 4.8 | 17.7 | 0.00 | 0.00 | 0.00 | 69 | 1008.1 |
| 20260506022031 | 21 | 349 | 6.4 | 17.7 | 0.00 | 0.00 | 0.00 | 69 | 1008.1 |
| 20260506021538 | 22 | 20 | 9.7 | 16.1 | 0.00 | 0.00 | 0.00 | 68 | 1007.9 |
| 20260506021033 | 22 | 46 | 4.8 | 11.3 | 0.00 | 0.00 | 0.00 | 69 | 1007.9 |
| 20260506020530 | 22 | 48 | 3.2 | 11.3 | 0.00 | 0.00 | 0.00 | 68 | 1007.4 |
| 20260506020044 | 22 | 49 | 3.2 | 11.3 | 0.00 | 0.00 | 0.00 | 68 | 1007.3 |
| 20260506015532 | 22 | 53 | 4.8 | 11.3 | 0.00 | 0.00 | 0.00 | 67 | 1007.1 |
| 20260506015032 | 22 | 47 | 3.2 | 11.3 | 0.00 | 0.00 | 0.00 | 67 | 1007.3 |
| 20260506014544 | 22 | 328 | 4.8 | 11.3 | 0.00 | 0.00 | 0.00 | 66 | 1007.3 |
| 20260506014031 | 22 | 54 | 1.6 | 8.0 | 0.00 | 0.00 | 0.00 | 66 | 1007.3 |
| 20260506013529 | 23 | 53 | 1.6 | 12.9 | 0.00 | 0.00 | 0.00 | 66 | 1007.3 |
| 20260506013046 | 23 | 37 | 3.2 | 12.9 | 0.00 | 0.00 | 0.00 | 66 | 1007.0 |
| 20260506012530 | 23 | 44 | 3.2 | 12.9 | 0.00 | 0.00 | 0.00 | 65 | 1007.1 |
| 20260506012035 | 23 | 35 | 3.2 | 11.3 | 0.00 | 0.00 | 0.00 | 65 | 1006.8 |
| 20260506011543 | 23 | 0 | 3.2 | 12.9 | 0.00 | 0.00 | 0.00 | 65 | 1006.9 |
| 20260506011032 | 23 | 326 | 1.6 | 12.9 | 0.00 | 0.00 | 0.00 | 65 | 1007.1 |
| 20260506010531 | 23 | 316 | 3.2 | 14.5 | 0.00 | 0.00 | 0.00 | 64 | 1006.8 |
| 20260506010045 | 23 | 330 | 4.8 | 14.5 | 0.00 | 0.00 | 0.00 | 64 | 1006.8 |
| 20260506005532 | 23 | 283 | 4.8 | 12.9 | 0.00 | 0.00 | 0.00 | 63 | 1006.8 |
| 20260506005031 | 23 | 50 | 4.8 | 12.9 | 0.00 | 0.00 | 0.00 | 63 | 1006.7 |
| 20260506004548 | 23 | 53 | 4.8 | 12.9 | 0.00 | 0.00 | 0.00 | 64 | 1006.2 |
| 20260506004032 | 24 | 41 | 3.2 | 9.7 | 0.00 | 0.00 | 0.00 | 64 | 1006.5 |
| 20260506003531 | 24 | 51 | 1.6 | 12.9 | 0.00 | 0.00 | 0.00 | 64 | 1006.5 |
| 20260506003045 | 24 | 39 | 3.2 | 12.9 | 0.00 | 0.00 | 0.00 | 63 | 1006.4 |
| 20260506002532 | 25 | 56 | 4.8 | 16.1 | 0.00 | 0.00 | 0.00 | 63 | 1006.4 |
| 20260506002031 | 25 | 0 | 0.0 | 16.1 | 0.00 | 0.00 | 0.00 | 63 | 1006.2 |
| 20260506001544 | 25 | 335 | 6.4 | 19.3 | 0.00 | 0.00 | 0.00 | 62 | 1006.1 |
| 20260506001030 | 25 | 349 | 6.4 | 22.5 | 0.00 | 0.00 | 0.00 | 61 | 1006.1 |
| 20260506000531 | 26 | 312 | 8.0 | 22.5 | 0.00 | 0.00 | 0.00 | 60 | 1006.0 |
| 20260506000044 | 26 | 16 | 6.4 | 22.5 | 0.00 | 0.00 | 0.00 | 59 | 1005.8 |
| 20260505235531 | 26 | 338 | 4.8 | 22.5 | 0.00 | 0.00 | 0.00 | 59 | 1005.5 |
| 20260505235031 | 26 | 326 | 6.4 | 22.5 | 0.00 | 0.00 | 0.00 | 59 | 1005.5 |
| 20260505234550 | 26 | 20 | 8.0 | 20.9 | 0.00 | 0.00 | 0.00 | 58 | 1005.5 |
| 20260505234032 | 27 | 61 | 6.4 | 20.9 | 0.00 | 0.00 | 0.00 | 58 | 1005.5 |
| 20260505233532 | 27 | 316 | 6.4 | 17.7 | 0.00 | 0.00 | 0.00 | 56 | 1005.5 |
| 20260505233042 | 28 | 46 | 6.4 | 17.7 | 0.00 | 0.00 | 0.00 | 55 | 1005.6 |
| 20260505232531 | 28 | 342 | 8.0 | 17.7 | 0.00 | 0.00 | 0.00 | 54 | 1005.5 |
| 20260505232032 | 29 | 36 | 4.8 | 14.5 | 0.00 | 0.00 | 0.00 | 51 | 1005.2 |
| 20260505231546 | 29 | 319 | 6.4 | 16.1 | 0.00 | 0.00 | 0.00 | 51 | 1005.1 |
| 20260505231031 | 30 | 332 | 8.0 | 16.1 | 0.00 | 0.00 | 0.00 | 50 | 1005.1 |
| 20260505230531 | 30 | 56 | 4.8 | 22.5 | 0.00 | 0.00 | 0.00 | 49 | 1005.1 |
| 20260505230045 | 30 | 46 | 6.4 | 22.5 | 0.00 | 0.00 | 0.00 | 47 | 1004.9 |
| 20260505225532 | 30 | 314 | 8.0 | 22.5 | 0.00 | 0.00 | 0.00 | 46 | 1004.7 |
| 20260505225031 | 30 | 311 | 6.4 | 16.1 | 0.00 | 0.00 | 0.00 | 44 | 1004.6 |
| 20260505224544 | 31 | 21 | 6.4 | 16.1 | 0.00 | 0.00 | 0.00 | 44 | 1004.7 |
| 20260505224032 | 31 | 27 | 8.0 | 16.1 | 0.00 | 0.00 | 0.00 | 42 | 1004.7 |
| 20260505223532 | 32 | 349 | 8.0 | 16.1 | 0.00 | 0.00 | 0.00 | 41 | 1004.7 |
| 20260505223051 | 32 | 15 | 3.2 | 12.9 | 0.00 | 0.00 | 0.00 | 44 | 1004.4 |
| 20260505222533 | 32 | 245 | 1.6 | 12.9 | 0.00 | 0.00 | 0.00 | 44 | 1004.2 |
| 20260505222031 | 33 | 214 | 4.8 | 11.3 | 0.00 | 0.00 | 0.00 | 44 | 1004.3 |
| 20260505221544 | 33 | 264 | 1.6 | 9.7 | 0.00 | 0.00 | 0.00 | 45 | 1004.2 |
| 20260505221028 | 33 | 224 | 1.6 | 14.5 | 0.00 | 0.00 | 0.00 | 43 | 1004.0 |
| 20260505220531 | 33 | 238 | 4.8 | 14.5 | 0.00 | 0.00 | 0.00 | 44 | 1004.1 |
| 20260505220045 | 33 | 264 | 1.6 | 11.3 | 0.00 | 0.00 | 0.00 | 45 | 1004.2 |
| 20260505215532 | 33 | 236 | 1.6 | 16.1 | 0.00 | 0.00 | 0.00 | 45 | 1004.2 |
| 20260505215031 | 33 | 242 | 3.2 | 16.1 | 0.00 | 0.00 | 0.00 | 45 | 1004.3 |
| 20260505214553 | 33 | 226 | 4.8 | 12.9 | 0.00 | 0.00 | 0.00 | 44 | 1004.4 |
| 20260505214032 | 33 | 252 | 0.0 | 11.3 | 0.00 | 0.00 | 0.00 | 46 | 1004.3 |
| 20260505213531 | 33 | 304 | 3.2 | 9.7 | 0.00 | 0.00 | 0.00 | 44 | 1004.3 |
| 20260505213044 | 33 | 0 | 3.2 | 12.9 | 0.00 | 0.00 | 0.00 | 46 | 1004.3 |
| 20260505212531 | 33 | 243 | 4.8 | 14.5 | 0.00 | 0.00 | 0.00 | 47 | 1004.5 |
| 20260505212032 | 32 | 225 | 4.8 | 14.5 | 0.00 | 0.00 | 0.00 | 49 | 1004.4 |
| 20260505211544 | 32 | 248 | 4.8 | 14.5 | 0.00 | 0.00 | 0.00 | 48 | 1004.6 |
| 20260505211029 | 32 | 224 | 4.8 | 14.5 | 0.00 | 0.00 | 0.00 | 48 | 1004.7 |
| 20260505210531 | 32 | 301 | 4.8 | 11.3 | 0.00 | 0.00 | 0.00 | 49 | 1004.7 |
| 20260505210044 | 32 | 264 | 4.8 | 17.7 | 0.00 | 0.00 | 0.00 | 49 | 1004.7 |
| 20260505205533 | 32 | 243 | 6.4 | 17.7 | 0.00 | 0.00 | 0.00 | 50 | 1004.6 |
| 20260505205032 | 32 | 251 | 4.8 | 17.7 | 0.00 | 0.00 | 0.00 | 51 | 1004.8 |
| 20260505204546 | 32 | 181 | 6.4 | 17.7 | 0.00 | 0.00 | 0.00 | 50 | 1004.8 |
| 20260505204031 | 32 | 223 | 3.2 | 16.1 | 0.00 | 0.00 | 0.00 | 51 | 1004.9 |
| 20260505203531 | 32 | 224 | 4.8 | 12.9 | 0.00 | 0.00 | 0.00 | 51 | 1005.0 |
| 20260505203044 | 32 | 231 | 1.6 | 22.5 | 0.00 | 0.00 | 0.00 | 52 | 1005.2 |
| 20260505202531 | 32 | 248 | 8.0 | 22.5 | 0.00 | 0.00 | 0.00 | 52 | 1005.2 |
| 20260505202033 | 32 | 230 | 6.4 | 17.7 | 0.00 | 0.00 | 0.00 | 51 | 1005.2 |
| 20260505201539 | 32 | 219 | 4.8 | 16.1 | 0.00 | 0.00 | 0.00 | 51 | 1005.2 |
| 20260505201032 | 32 | 246 | 3.2 | 17.7 | 0.00 | 0.00 | 0.00 | 50 | 1005.3 |
| 20260505200531 | 32 | 258 | 4.8 | 17.7 | 0.00 | 0.00 | 0.00 | 53 | 1005.3 |
| 20260505200048 | 32 | 218 | 8.0 | 20.9 | 0.00 | 0.00 | 0.00 | 51 | 1005.3 |
| 20260505195534 | 31 | 280 | 4.8 | 20.9 | 0.00 | 0.00 | 0.00 | 53 | 1005.3 |
| 20260505195031 | 32 | 236 | 9.7 | 20.9 | 0.00 | 0.00 | 0.00 | 53 | 1005.4 |
| 20260505194551 | 32 | 198 | 3.2 | 17.7 | 0.00 | 0.00 | 0.00 | 54 | 1005.4 |
| 20260505194028 | 31 | 248 | 8.0 | 17.7 | 0.00 | 0.00 | 0.00 | 53 | 1005.3 |
| 20260505193532 | 31 | 279 | 6.4 | 17.7 | 0.00 | 0.00 | 0.00 | 55 | 1005.5 |
| 20260505193042 | 31 | 247 | 4.8 | 12.9 | 0.00 | 0.00 | 0.00 | 55 | 1005.5 |
| 20260505192533 | 31 | 252 | 4.8 | 16.1 | 0.00 | 0.00 | 0.00 | 54 | 1005.4 |
| 20260505192031 | 31 | 172 | 3.2 | 16.1 | 0.00 | 0.00 | 0.00 | 56 | 1005.4 |
| 20260505191544 | 31 | 188 | 4.8 | 22.5 | 0.00 | 0.00 | 0.00 | 56 | 1005.5 |
| 20260505191035 | 31 | 199 | 4.8 | 22.5 | 0.00 | 0.00 | 0.00 | 56 | 1005.3 |
| 20260505190532 | 30 | 243 | 4.8 | 14.5 | 0.00 | 0.00 | 0.00 | 58 | 1005.4 |
| 20260505190043 | 30 | 235 | 3.2 | 12.9 | 0.00 | 0.00 | 0.00 | 58 | 1005.5 |
| 20260505185532 | 30 | 257 | 4.8 | 20.9 | 0.00 | 0.00 | 0.00 | 58 | 1005.5 |
| 20260505185032 | 30 | 250 | 6.4 | 20.9 | 0.00 | 0.00 | 0.00 | 58 | 1005.5 |
| 20260505184538 | 30 | 243 | 6.4 | 14.5 | 0.00 | 0.00 | 0.00 | 58 | 1005.6 |
| 20260505184031 | 30 | 231 | 1.6 | 12.9 | 0.00 | 0.00 | 0.00 | 60 | 1005.5 |
| 20260505183530 | 30 | 162 | 4.8 | 17.7 | 0.00 | 0.00 | 0.00 | 59 | 1005.6 |
| 20260505183043 | 29 | 174 | 6.4 | 19.3 | 0.00 | 0.00 | 0.00 | 59 | 1005.6 |
| 20260505182530 | 29 | 193 | 8.0 | 19.3 | 0.00 | 0.00 | 0.00 | 60 | 1005.6 |
| 20260505182031 | 30 | 236 | 4.8 | 17.7 | 0.00 | 0.00 | 0.00 | 58 | 1005.7 |
| 20260505181546 | 30 | 299 | 4.8 | 20.9 | 0.00 | 0.00 | 0.00 | 59 | 1005.7 |
| 20260505181031 | 29 | 120 | 6.4 | 20.9 | 0.00 | 0.00 | 0.00 | 59 | 1005.7 |
| 20260505180531 | 29 | 243 | 8.0 | 17.7 | 0.00 | 0.00 | 0.00 | 60 | 1005.7 |
| 20260505180044 | 30 | 221 | 4.8 | 19.3 | 0.00 | 0.00 | 0.00 | 60 | 1005.7 |
| 20260505175532 | 29 | 207 | 6.4 | 19.3 | 0.00 | 0.00 | 0.00 | 60 | 1005.7 |
| 20260505175032 | 29 | 186 | 3.2 | 17.7 | 0.00 | 0.00 | 0.00 | 61 | 1005.6 |
| 20260505174543 | 29 | 112 | 4.8 | 17.7 | 0.00 | 0.00 | 0.00 | 60 | 1005.6 |
| 20260505174031 | 28 | 270 | 6.4 | 17.7 | 0.00 | 0.00 | 0.00 | 62 | 1005.7 |
| 20260505173527 | 29 | 285 | 4.8 | 12.9 | 0.00 | 0.00 | 0.00 | 62 | 1005.7 |
| 20260505173045 | 28 | 171 | 4.8 | 12.9 | 0.00 | 0.00 | 0.00 | 62 | 1005.7 |
| 20260505172527 | 28 | 190 | 4.8 | 14.5 | 0.00 | 0.00 | 0.00 | 63 | 1005.8 |
| 20260505172028 | 28 | 178 | 4.8 | 16.1 | 0.00 | 0.00 | 0.00 | 63 | 1005.9 |
| 20260505171545 | 28 | 191 | 1.6 | 17.7 | 0.00 | 0.00 | 0.00 | 65 | 1005.8 |
| 20260505171032 | 28 | 262 | 3.2 | 17.7 | 0.00 | 0.00 | 0.00 | 65 | 1005.8 |
| 20260505170527 | 27 | 233 | 8.0 | 17.7 | 0.00 | 0.00 | 0.00 | 66 | 1005.9 |
| 20260505170043 | 27 | 217 | 6.4 | 14.5 | 0.00 | 0.00 | 0.00 | 66 | 1005.9 |
| 20260505165527 | 27 | 199 | 3.2 | 16.1 | 0.00 | 0.00 | 0.00 | 66 | 1005.9 |
| 20260505165031 | 27 | 235 | 6.4 | 16.1 | 0.00 | 0.00 | 0.00 | 67 | 1006.0 |
| 20260505164558 | 27 | 256 | 6.4 | 22.5 | 0.00 | 0.00 | 0.00 | 67 | 1006.0 |
| 20260505164033 | 27 | 164 | 6.4 | 22.5 | 0.00 | 0.00 | 0.00 | 67 | 1005.8 |
| 20260505163531 | 27 | 238 | 4.8 | 19.3 | 0.00 | 0.00 | 0.00 | 67 | 1005.8 |
| 20260505163049 | 27 | 82 | 6.4 | 24.1 | 0.00 | 0.00 | 0.00 | 68 | 1005.8 |
| 20260505162534 | 27 | 257 | 8.0 | 24.1 | 0.00 | 0.00 | 0.00 | 68 | 1005.6 |
| 20260505162031 | 27 | 226 | 4.8 | 17.7 | 0.00 | 0.00 | 0.00 | 69 | 1005.7 |
| 20260505161538 | 27 | 266 | 6.4 | 16.1 | 0.00 | 0.00 | 0.00 | 69 | 1005.8 |
| 20260505161031 | 27 | 238 | 4.8 | 14.5 | 0.00 | 0.00 | 0.00 | 69 | 1005.8 |
| 20260505160528 | 26 | 195 | 4.8 | 19.3 | 0.00 | 0.00 | 0.00 | 71 | 1005.8 |
| 20260505153043 | 25 | 165 | 4.8 | 16.1 | 0.00 | 0.00 | 0.00 | 73 | 1005.5 |
| 20260505152531 | 25 | 198 | 4.8 | 24.1 | 0.00 | 0.00 | 0.00 | 73 | 1005.6 |
| 20260505152031 | 25 | 224 | 3.2 | 24.1 | 0.00 | 0.00 | 0.00 | 74 | 1005.7 |
| 20260505151541 | 25 | 241 | 6.4 | 24.1 | 0.00 | 0.00 | 0.00 | 74 | 1005.6 |
| 20260505151033 | 25 | 195 | 4.8 | 14.5 | 0.00 | 0.00 | 0.00 | 75 | 1005.7 |
| 20260505150531 | 25 | 168 | 6.4 | 14.5 | 0.00 | 0.00 | 0.00 | 76 | 1005.8 |
| 20260505140531 | 23 | 240 | 6.4 | 19.3 | 0.00 | 0.00 | 0.00 | 81 | 1005.7 |
| 20260505130105 | 22 | 170 | 4.8 | 16.1 | 0.00 | 0.00 | 0.00 | 84 | 1005.4 |
| 20260505125030 | 22 | 210 | 6.4 | 16.1 | 0.00 | 0.00 | 0.00 | 84 | 1005.2 |
| 20260505124549 | 21 | 168 | 1.6 | 14.5 | 0.00 | 0.00 | 0.00 | 84 | 1005.3 |
| 20260505124031 | 21 | 199 | 3.2 | 14.5 | 0.00 | 0.00 | 0.00 | 84 | 1005.4 |
| 20260505123534 | 21 | 219 | 3.2 | 17.7 | 0.00 | 0.00 | 0.00 | 84 | 1005.4 |
| 20260505123047 | 21 | 184 | 4.8 | 17.7 | 0.00 | 0.00 | 0.00 | 84 | 1005.2 |
| 20260505122531 | 21 | 184 | 4.8 | 17.7 | 0.00 | 0.00 | 0.00 | 84 | 1005.1 |
| 20260505122031 | 21 | 161 | 3.2 | 17.7 | 0.00 | 0.00 | 0.00 | 84 | 1004.8 |
| 20260505121540 | 21 | 162 | 6.4 | 16.1 | 0.00 | 0.00 | 0.00 | 84 | 1004.8 |
| 20260505121031 | 21 | 176 | 6.4 | 16.1 | 0.00 | 0.00 | 0.00 | 84 | 1004.8 |
| 20260505120531 | 21 | 153 | 1.6 | 11.3 | 0.00 | 0.00 | 0.00 | 84 | 1004.8 |
| 20260505120058 | 21 | 208 | 4.8 | 17.7 | 0.00 | 0.00 | 0.00 | 84 | 1004.8 |
| 20260505115531 | 21 | 271 | 4.8 | 17.7 | 0.00 | 0.00 | 0.00 | 84 | 1004.9 |
| 20260505115028 | 21 | 140 | 4.8 | 17.7 | 0.00 | 0.00 | 0.00 | 84 | 1004.8 |
| 20260505114544 | 21 | 176 | 4.8 | 12.9 | 0.00 | 0.00 | 0.00 | 84 | 1004.8 |
| 20260505114031 | 21 | 252 | 4.8 | 12.9 | 0.00 | 0.00 | 0.00 | 84 | 1004.7 |
| 20260505113528 | 21 | 187 | 4.8 | 12.9 | 0.00 | 0.00 | 0.00 | 84 | 1004.7 |
| 20260505113050 | 21 | 175 | 4.8 | 19.3 | 0.00 | 0.00 | 0.00 | 83 | 1004.7 |
| 20260505112527 | 21 | 184 | 4.8 | 19.3 | 0.00 | 0.00 | 0.00 | 83 | 1004.7 |
| 20260505112027 | 21 | 181 | 6.4 | 19.3 | 0.00 | 0.00 | 0.00 | 83 | 1004.6 |
| 20260505111543 | 21 | 201 | 3.2 | 14.5 | 0.00 | 0.00 | 0.00 | 83 | 1004.6 |
| 20260505111033 | 22 | 143 | 4.8 | 16.1 | 0.00 | 0.00 | 0.00 | 83 | 1004.5 |
| 20260505110532 | 22 | 225 | 6.4 | 16.1 | 0.00 | 0.00 | 0.00 | 83 | 1004.7 |
| 20260505102029 | 22 | 174 | 3.2 | 17.7 | 0.00 | 0.00 | 0.00 | 82 | 1004.8 |
| 20260505101544 | 22 | 199 | 1.6 | 19.3 | 0.00 | 0.00 | 0.00 | 82 | 1004.8 |
| 20260505101028 | 22 | 212 | 4.8 | 19.3 | 0.00 | 0.00 | 0.00 | 82 | 1004.8 |
| 20260505100532 | 22 | 216 | 6.4 | 19.3 | 0.00 | 0.00 | 0.00 | 82 | 1004.9 |
| 20260505100044 | 22 | 164 | 3.2 | 12.9 | 0.00 | 0.00 | 0.00 | 82 | 1005.0 |
| 20260505095527 | 22 | 172 | 4.8 | 12.9 | 0.00 | 0.00 | 0.00 | 82 | 1004.9 |
| 20260505095027 | 22 | 169 | 6.4 | 12.9 | 0.00 | 0.00 | 0.00 | 82 | 1004.7 |
| 20260505094544 | 22 | 208 | 3.2 | 11.3 | 0.00 | 0.00 | 0.00 | 81 | 1004.9 |
| 20260505094027 | 22 | 163 | 3.2 | 11.3 | 0.00 | 0.00 | 0.00 | 81 | 1005.0 |
| 20260505093528 | 22 | 182 | 3.2 | 11.3 | 0.00 | 0.00 | 0.00 | 81 | 1004.8 |
| 20260505093043 | 22 | 162 | 3.2 | 11.3 | 0.00 | 0.00 | 0.00 | 81 | 1004.9 |
| 20260505092532 | 22 | 0 | 4.8 | 11.3 | 0.00 | 0.00 | 0.00 | 81 | 1005.1 |
| 20260505092032 | 22 | 183 | 3.2 | 12.9 | 0.00 | 0.00 | 0.00 | 81 | 1005.2 |
| 20260505091538 | 22 | 183 | 3.2 | 12.9 | 0.00 | 0.00 | 0.00 | 81 | 1005.1 |
| 20260505091031 | 22 | 196 | 6.4 | 12.9 | 0.00 | 0.00 | 0.00 | 81 | 1005.2 |
| 20260505090531 | 22 | 170 | 4.8 | 12.9 | 0.00 | 0.00 | 0.00 | 81 | 1005.2 |
| 20260505090047 | 22 | 195 | 6.4 | 17.7 | 0.00 | 0.00 | 0.00 | 81 | 1005.4 |
| 20260505085531 | 22 | 190 | 6.4 | 17.7 | 0.00 | 0.00 | 0.00 | 81 | 1005.3 |
| 20260505085028 | 22 | 240 | 6.4 | 17.7 | 0.00 | 0.00 | 0.00 | 81 | 1005.3 |
| 20260505084545 | 22 | 0 | 1.6 | 19.3 | 0.00 | 0.00 | 0.00 | 81 | 1005.3 |
| 20260505084027 | 22 | 191 | 1.6 | 19.3 | 0.00 | 0.00 | 0.00 | 80 | 1005.3 |
| 20260505083531 | 22 | 214 | 4.8 | 14.5 | 0.00 | 0.00 | 0.00 | 80 | 1005.4 |
| 20260505083045 | 22 | 205 | 3.2 | 8.0 | 0.00 | 0.00 | 0.00 | 80 | 1005.3 |
| 20260505082530 | 22 | 194 | 1.6 | 8.0 | 0.00 | 0.00 | 0.00 | 80 | 1005.2 |
| 20260505082030 | 22 | 135 | 3.2 | 11.3 | 0.00 | 0.00 | 0.00 | 80 | 1005.3 |
| 20260505081550 | 22 | 114 | 3.2 | 11.3 | 0.00 | 0.00 | 0.00 | 80 | 1005.4 |
| 20260505081031 | 22 | 176 | 1.6 | 9.7 | 0.00 | 0.00 | 0.00 | 80 | 1005.3 |
| 20260505080530 | 22 | 224 | 0.0 | 9.7 | 0.00 | 0.00 | 0.00 | 79 | 1005.3 |
| 20260505080047 | 22 | 0 | 0.0 | 8.0 | 0.00 | 0.00 | 0.00 | 79 | 1005.3 |
| 20260505075531 | 22 | 0 | 1.6 | 9.7 | 0.00 | 0.00 | 0.00 | 79 | 1005.5 |
| 20260505075032 | 22 | 231 | 3.2 | 9.7 | 0.00 | 0.00 | 0.00 | 79 | 1005.4 |
| 20260505074542 | 22 | 193 | 3.2 | 14.5 | 0.00 | 0.00 | 0.00 | 78 | 1005.5 |
| 20260505074031 | 22 | 172 | 4.8 | 14.5 | 0.00 | 0.00 | 0.00 | 78 | 1005.7 |
| 20260505073531 | 22 | 176 | 1.6 | 9.7 | 0.00 | 0.00 | 0.00 | 78 | 1005.8 |
| 20260505073049 | 22 | 160 | 1.6 | 14.5 | 0.00 | 0.00 | 0.00 | 78 | 1005.8 |
| 20260505072530 | 22 | 252 | 3.2 | 14.5 | 0.00 | 0.00 | 0.00 | 77 | 1006.0 |
| 20260505072030 | 22 | 230 | 3.2 | 14.5 | 0.00 | 0.00 | 0.00 | 77 | 1006.1 |
| 20260505071551 | 22 | 0 | 0.0 | 12.9 | 0.00 | 0.00 | 0.00 | 77 | 1006.2 |
| 20260505071031 | 22 | 185 | 3.2 | 16.1 | 0.00 | 0.00 | 0.00 | 76 | 1006.3 |
| 20260505070531 | 22 | 194 | 3.2 | 16.1 | 0.00 | 0.00 | 0.00 | 76 | 1006.4 |
| 20260505070043 | 23 | 173 | 3.2 | 9.7 | 0.00 | 0.00 | 0.00 | 76 | 1006.5 |
| 20260505065531 | 23 | 186 | 4.8 | 9.7 | 0.00 | 0.00 | 0.00 | 76 | 1006.5 |
| 20260505065030 | 23 | 280 | 1.6 | 8.0 | 0.00 | 0.00 | 0.00 | 75 | 1006.4 |
| 20260505064544 | 23 | 0 | 1.6 | 11.3 | 0.00 | 0.00 | 0.00 | 75 | 1006.6 |
| 20260505064030 | 23 | 0 | 3.2 | 11.3 | 0.00 | 0.00 | 0.00 | 75 | 1006.7 |
| 20260505063530 | 23 | 0 | 1.6 | 8.0 | 0.00 | 0.00 | 0.00 | 74 | 1006.6 |
| 20260505063041 | 23 | 181 | 1.6 | 8.0 | 0.00 | 0.00 | 0.00 | 74 | 1006.6 |
| 20260505062530 | 23 | 175 | 3.2 | 8.0 | 0.00 | 0.00 | 0.00 | 74 | 1006.6 |
| 20260505062030 | 23 | 214 | 1.6 | 8.0 | 0.00 | 0.00 | 0.00 | 74 | 1006.6 |
| 20260505061539 | 23 | 165 | 3.2 | 8.0 | 0.00 | 0.00 | 0.00 | 74 | 1006.6 |
| 20260505061030 | 23 | 0 | 0.0 | 6.4 | 0.00 | 0.00 | 0.00 | 73 | 1006.7 |
| 20260505060531 | 23 | 187 | 1.6 | 6.4 | 0.00 | 0.00 | 0.00 | 73 | 1006.6 |
| 20260505060039 | 23 | 228 | 1.6 | 8.0 | 0.00 | 0.00 | 0.00 | 73 | 1006.7 |
| 20260505055533 | 23 | 201 | 1.6 | 8.0 | 0.00 | 0.00 | 0.00 | 73 | 1006.6 |
| 20260505055031 | 23 | 209 | 0.0 | 6.4 | 0.00 | 0.00 | 0.00 | 72 | 1006.5 |
| 20260505054551 | 23 | 196 | 0.0 | 6.4 | 0.00 | 0.00 | 0.00 | 72 | 1006.6 |
| 20260505054031 | 23 | 0 | 1.6 | 8.0 | 0.00 | 0.00 | 0.00 | 72 | 1006.6 |
| 20260505053531 | 23 | 182 | 0.0 | 8.0 | 0.00 | 0.00 | 0.00 | 72 | 1006.6 |
| 20260505053056 | 23 | 0 | 0.0 | 9.7 | 0.00 | 0.00 | 0.00 | 71 | 1006.6 |
| 20260505052530 | 23 | 179 | 1.6 | 9.7 | 0.00 | 0.00 | 0.00 | 71 | 1006.7 |
| 20260505052030 | 23 | 82 | 1.6 | 8.0 | 0.00 | 0.00 | 0.00 | 71 | 1006.6 |
| 20260505051545 | 23 | 112 | 1.6 | 8.0 | 0.00 | 0.00 | 0.00 | 71 | 1006.7 |
| 20260505051032 | 23 | 0 | 1.6 | 8.0 | 0.00 | 0.00 | 0.00 | 70 | 1006.7 |
| 20260505050530 | 23 | 195 | 1.6 | 9.7 | 0.00 | 0.00 | 0.00 | 70 | 1006.9 |
| 20260505041539 | 23 | 179 | 3.2 | 17.7 | 0.00 | 0.00 | 0.00 | 69 | 1006.8 |
| 20260505041031 | 23 | 184 | 3.2 | 9.7 | 0.00 | 0.00 | 0.00 | 69 | 1007.0 |
| 20260505040533 | 23 | 0 | 0.0 | 8.0 | 0.00 | 0.00 | 0.00 | 69 | 1007.0 |
| 20260505040050 | 23 | 0 | 0.0 | 8.0 | 0.00 | 0.00 | 0.00 | 68 | 1007.0 |
| 20260505035534 | 23 | 140 | 1.6 | 16.1 | 0.00 | 0.00 | 0.00 | 68 | 1006.9 |
| 20260505035031 | 23 | 105 | 1.6 | 16.1 | 0.00 | 0.00 | 0.00 | 68 | 1006.9 |
| 20260505034543 | 23 | 133 | 3.2 | 16.1 | 0.00 | 0.00 | 0.00 | 68 | 1006.8 |
| 20260505034031 | 23 | 312 | 3.2 | 9.7 | 0.00 | 0.00 | 0.00 | 68 | 1006.8 |